User: anonymous
Location: Unspecified
(0.0000°N, 0.0000°E)
Time: 11:26:15
(UTC+02:00)
Language:

Cosmos 1538 Rocket - Orbit

View from above orbital plane
View from above orbital plane
View from above satellite
View from above satellite

Ground track
Ground track

The orbit data is extracted from the following two-line orbital elements,

1 14760U 84019B   14258.76683263  .00000140  00000-0  57682-4 0  4072
2 14760 074.0453 165.9313 0029130 272.8321 144.6315 14.35533395599290
Epoch (UTC): 15 September 2014 18:24:14
Eccentricity: 0.0029130
inclination: 74.0453°
perigee height: 752 km
apogee height: 794 km
right ascension of ascending node: 165.9313°
argument of perigee: 272.8321°
revolutions per day: 14.35533395
mean anomaly at epoch: 144.6315°
orbit number at epoch: 59929

The dashed part of the orbit path shows where the satellite is in the earth's shadow,  

DLR